Palm Springs, CA

3:57 PM PDT on August 22, 2017 (GMT -0700)
Palm Springs International

Weather History for KPSP - August, 2013

Change the Weather History Date:

Saturday, August 17, 2013

  Actual Average Record
Temperature  
Mean Temperature 97 °F 92 °F  
Max Temperature 111 °F 106 °F 118 °F (1950)
Min Temperature 83 °F 78 °F 60 °F (1976)
Degree Days  
Heating Degree Days 0 0  
Month to date heating degree days 0 0  
Since 1 June heating degree days 0 0  
Since 1 July heating degree days 0 0  
Cooling Degree Days 32 27  
Month to date cooling degree days 438 464  
Year to date cooling degree days 3115 2716  
Since 1 June cooling degree days 2073 1957  
Growing Degree Days 46 (Base 50)    
Moisture  
Dew Point 52 °F    
Average Humidity 26    
Maximum Humidity 37    
Minimum Humidity 14    
Precipitation  
Precipitation 0.00 in 0.01 in 1.63 in (1977)
Month to date precipitation 0.00 0.19  
Year to date precipitation 1.91 3.38  
Since 1 July precipitation 0.94  
Snow  
Snow 0.00 in - - ()
Month to date snowfall 0.0  
Year to date snowfall 0.0  
Snow Depth 0.00 in    
Sea Level Pressure  
Sea Level Pressure 29.77 in    
Wind  
Wind Speed 4 mph (East)    
Max Wind Speed 9 mph    
Max Gust Speed 13 mph    
Visibility 10 miles    
Events      
T = Trace of Precipitation, MM = Missing Value Source: NWS Daily Summary

Daily Weather History Graph

Daily Weather History Graph

Search for Another Location

Airport or City:

Trip Planner

Search our weather history database for the weather conditions in past years. The results will help you decide how hot, cold, wet, or windy it might be!

Date:

Astronomy

Aug. 17, 2013 Rise Set
Actual Time 6:09 AM PDT 7:29 PM PDT
Civil Twilight 5:43 AM PDT 7:56 PM PDT
Nautical Twilight 5:11 AM PDT 8:27 PM PDT
Astronomical Twilight 4:39 AM PDT 8:59 PM PDT
Moon 4:45 PM PDT (8/17) 2:22 AM PDT (8/17)
Length of Visible Light 14h 12m
Length of Day
13h 20m
Waxing Gibbous, 85% of the Moon is Illuminated
Aug 17
Waxing Gibbous
Aug 20
Full
Aug 28
Last Quarter
Sep 5
New
Sep 12
First Quarter

Hourly Weather History & Observations

Time (PDT) Temp. Heat Index Dew Point Humidity Pressure Visibility Wind Dir Wind Speed Gust Speed Precip Events Conditions
12:53 AM 91.0 °F - 52.0 °F 26% 29.81 in 10.0 mi Calm Calm - N/A   Clear
1:53 AM 89.1 °F - 52.0 °F 28% 29.81 in 10.0 mi SSE 4.6 mph - N/A   Clear
2:53 AM 87.1 °F - 52.0 °F 30% 29.80 in 10.0 mi SE 3.5 mph - N/A   Clear
3:53 AM 86.0 °F 84.5 °F 55.0 °F 35% 29.79 in 10.0 mi Calm Calm - N/A   Clear
4:53 AM 84.0 °F 82.9 °F 55.0 °F 37% 29.79 in 10.0 mi Calm Calm - N/A   Clear
5:53 AM 82.9 °F 81.9 °F 54.0 °F 37% 29.81 in 10.0 mi SSW 3.5 mph - N/A   Clear
6:53 AM 84.0 °F 82.6 °F 54.0 °F 35% 29.82 in 10.0 mi Calm Calm - N/A   Clear
7:53 AM 89.1 °F 86.7 °F 53.1 °F 29% 29.84 in 10.0 mi Calm Calm - N/A   Clear
8:53 AM 93.9 °F - 52.0 °F 24% 29.86 in 10.0 mi ESE 5.8 mph - N/A   Clear
9:53 AM 96.1 °F - 51.1 °F 22% 29.86 in 10.0 mi East 4.6 mph - N/A   Clear
10:53 AM 99.0 °F - 52.0 °F 21% 29.86 in 10.0 mi SE 4.6 mph - N/A   Clear
11:53 AM 100.9 °F - 52.0 °F 19% 29.83 in 10.0 mi ESE 5.8 mph - N/A   Clear
12:53 PM 105.1 °F - 51.1 °F 16% 29.80 in 10.0 mi ENE 5.8 mph - N/A   Clear
1:53 PM 108.0 °F 105.9 °F 53.1 °F 16% 29.77 in 10.0 mi NNE 6.9 mph - N/A   Scattered Clouds
2:53 PM 109.9 °F - 50.0 °F 14% 29.73 in 10.0 mi East 8.1 mph - N/A   Clear
3:53 PM 111.0 °F - 50.0 °F 13% 29.70 in 10.0 mi East 6.9 mph - N/A   Partly Cloudy
4:53 PM 109.9 °F - 52.0 °F 15% 29.68 in 10.0 mi East 8.1 mph - N/A   Clear
5:53 PM 109.0 °F 107.4 °F 53.1 °F 16% 29.67 in 10.0 mi East 8.1 mph - N/A   Clear
6:53 PM 107.1 °F - 50.0 °F 15% 29.68 in 10.0 mi NW 15.0 mph - N/A   Clear
7:53 PM 104.0 °F - 52.0 °F 18% 29.68 in 10.0 mi NW 12.7 mph - N/A   Clear
8:53 PM 100.9 °F - 52.0 °F 19% 29.71 in 10.0 mi NW 13.8 mph - N/A   Clear
9:53 PM 98.1 °F - 52.0 °F 21% 29.73 in 10.0 mi NW 11.5 mph - N/A   Clear
10:53 PM 96.1 °F - 51.1 °F 22% 29.74 in 10.0 mi NW 11.5 mph - N/A   Clear
11:53 PM 93.9 °F - 52.0 °F 24% 29.75 in 10.0 mi Calm Calm - N/A   Clear